TimeMST,TemperatureF,Dew PointF,Humidity,Sea Level PressureIn,VisibilityMPH,Wind Direction,Wind SpeedMPH,Gust SpeedMPH,PrecipitationIn,Events,Conditions,WindDirDegrees,DateUTC
12:15 AM,28.4,8.6,43,30.39,10.0,ESE,5.8,-,N/A,,Clear,120,2013-01-17 07:15:00
12:35 AM,28.4,8.6,43,30.39,10.0,SE,5.8,-,N/A,,Clear,130,2013-01-17 07:35:00
12:55 AM,30.2,8.6,40,30.40,10.0,SE,4.6,-,N/A,,Clear,140,2013-01-17 07:55:00
1:15 AM,30.2,8.6,40,30.40,10.0,SE,5.8,-,N/A,,Clear,130,2013-01-17 08:15:00
1:35 AM,28.4,8.6,43,30.41,10.0,SE,5.8,-,N/A,,Clear,130,2013-01-17 08:35:00
1:55 AM,28.4,8.6,43,30.41,10.0,SE,6.9,-,N/A,,Clear,140,2013-01-17 08:55:00
2:15 AM,28.4,8.6,43,30.41,10.0,SE,6.9,-,N/A,,Clear,140,2013-01-17 09:15:00
2:35 AM,28.4,8.6,43,30.41,10.0,SE,6.9,-,N/A,,Clear,130,2013-01-17 09:35:00
2:55 AM,26.6,10.4,51,30.41,10.0,ESE,8.1,-,N/A,,Clear,120,2013-01-17 09:55:00
3:15 AM,23.0,10.4,59,30.41,10.0,ESE,10.4,-,N/A,,Clear,120,2013-01-17 10:15:00
3:35 AM,23.0,10.4,59,30.41,10.0,SE,12.7,-,N/A,,Clear,130,2013-01-17 10:35:00
3:55 AM,21.2,10.4,63,30.40,10.0,SE,12.7,-,N/A,,Clear,130,2013-01-17 10:55:00
4:15 AM,19.4,10.4,68,30.40,10.0,SE,12.7,-,N/A,,Clear,130,2013-01-17 11:15:00
4:35 AM,21.2,10.4,63,30.41,10.0,SE,11.5,-,N/A,,Clear,130,2013-01-17 11:35:00
5:15 AM,23.0,10.4,59,30.41,10.0,SE,11.5,-,N/A,,Clear,130,2013-01-17 12:15:00
5:35 AM,24.8,10.4,54,30.41,10.0,SE,10.4,-,N/A,,Clear,130,2013-01-17 12:35:00
5:55 AM,24.8,10.4,54,30.41,10.0,SE,9.2,-,N/A,,Clear,130,2013-01-17 12:55:00
6:15 AM,23.0,10.4,59,30.41,10.0,ESE,9.2,-,N/A,,Clear,120,2013-01-17 13:15:00
6:35 AM,21.2,10.4,63,30.41,10.0,SE,11.5,-,N/A,,Clear,130,2013-01-17 13:35:00
7:15 AM,21.2,10.4,63,30.41,10.0,SE,11.5,-,N/A,,Clear,140,2013-01-17 14:15:00
7:35 AM,19.4,10.4,68,30.41,10.0,SSE,8.1,-,N/A,,Clear,150,2013-01-17 14:35:00
7:55 AM,21.2,10.4,63,30.42,10.0,SE,10.4,-,N/A,,Clear,140,2013-01-17 14:55:00
8:15 AM,19.4,10.4,68,30.42,10.0,SE,10.4,-,N/A,,Clear,140,2013-01-17 15:15:00
8:35 AM,19.4,10.4,68,30.42,10.0,SE,13.8,-,N/A,,Clear,140,2013-01-17 15:35:00
9:15 AM,17.6,10.4,73,30.43,10.0,SE,13.8,-,N/A,,Clear,140,2013-01-17 16:15:00
9:35 AM,19.4,10.4,68,30.43,10.0,SE,17.3,-,N/A,,Clear,130,2013-01-17 16:35:00
9:55 AM,17.6,8.6,68,30.43,10.0,SE,15.0,-,N/A,,Clear,140,2013-01-17 16:55:00
10:15 AM,17.6,8.6,68,30.43,10.0,SE,15.0,-,N/A,,Clear,140,2013-01-17 17:15:00
10:35 AM,17.6,8.6,68,30.43,10.0,SE,12.7,-,N/A,,Clear,140,2013-01-17 17:35:00
10:55 AM,17.6,8.6,68,30.43,10.0,SSE,11.5,-,N/A,,Clear,150,2013-01-17 17:55:00
11:15 AM,21.2,8.6,58,30.42,10.0,SSE,10.4,-,N/A,,Clear,150,2013-01-17 18:15:00
11:35 AM,21.2,8.6,58,30.41,10.0,SE,12.7,-,N/A,,Clear,140,2013-01-17 18:35:00
11:55 AM,21.2,10.4,63,30.40,10.0,SSE,9.2,-,N/A,,Clear,150,2013-01-17 18:55:00
12:15 PM,21.2,10.4,63,30.39,10.0,SE,9.2,-,N/A,,Clear,140,2013-01-17 19:15:00
12:35 PM,21.2,10.4,63,30.38,10.0,SE,11.5,-,N/A,,Clear,140,2013-01-17 19:35:00
12:55 PM,24.8,10.4,54,30.38,10.0,SE,10.4,-,N/A,,Clear,140,2013-01-17 19:55:00
1:15 PM,26.6,10.4,51,30.36,10.0,SE,10.4,-,N/A,,Clear,140,2013-01-17 20:15:00
1:35 PM,26.6,10.4,51,30.36,10.0,SE,9.2,-,N/A,,Clear,140,2013-01-17 20:35:00
1:55 PM,24.8,10.4,54,30.35,10.0,SE,8.1,-,N/A,,Clear,140,2013-01-17 20:55:00
2:15 PM,24.8,10.4,54,30.34,10.0,SE,10.4,-,N/A,,Clear,140,2013-01-17 21:15:00
2:35 PM,23.0,10.4,59,30.33,10.0,SE,11.5,-,N/A,,Clear,140,2013-01-17 21:35:00
3:15 PM,23.0,10.4,59,30.32,10.0,SSE,10.4,-,N/A,,Clear,150,2013-01-17 22:15:00
3:55 PM,23.0,10.4,59,30.32,10.0,SSE,10.4,-,N/A,,Clear,150,2013-01-17 22:55:00
4:15 PM,24.8,10.4,54,30.32,10.0,SSE,9.2,-,N/A,,Clear,160,2013-01-17 23:15:00
4:35 PM,24.8,10.4,54,30.32,10.0,SSE,10.4,-,N/A,,Clear,150,2013-01-17 23:35:00
4:55 PM,24.8,10.4,54,30.32,10.0,SSE,8.1,-,N/A,,Clear,150,2013-01-17 23:55:00
5:15 PM,23.0,10.4,59,30.32,10.0,SE,9.2,-,N/A,,Clear,140,2013-01-18 00:15:00
5:35 PM,24.8,10.4,54,30.32,10.0,SSE,9.2,-,N/A,,Clear,150,2013-01-18 00:35:00
5:55 PM,24.8,12.2,59,30.32,10.0,SSE,10.4,-,N/A,,Clear,160,2013-01-18 00:55:00
6:15 PM,26.6,10.4,51,30.31,10.0,SSE,10.4,18.4,N/A,,Clear,160,2013-01-18 01:15:00
6:35 PM,23.0,12.2,63,30.31,10.0,South,12.7,-,N/A,,Clear,170,2013-01-18 01:35:00
6:55 PM,28.4,10.4,47,30.31,10.0,SSW,13.8,18.4,N/A,,Clear,200,2013-01-18 01:55:00
7:35 PM,28.4,10.4,47,30.31,10.0,SSW,15.0,-,N/A,,Clear,210,2013-01-18 02:35:00
7:55 PM,32.0,8.6,38,30.31,10.0,SW,15.0,-,N/A,,Clear,220,2013-01-18 02:55:00
8:15 PM,32.0,8.6,38,30.30,10.0,SSW,13.8,-,N/A,,Clear,210,2013-01-18 03:15:00
8:35 PM,32.0,5.0,32,30.30,10.0,SSW,15.0,-,N/A,,Clear,210,2013-01-18 03:35:00
8:55 PM,33.8,3.2,28,30.29,10.0,SW,10.4,-,N/A,,Clear,230,2013-01-18 03:55:00
9:15 PM,35.6,1.4,24,30.29,10.0,SW,13.8,-,N/A,,Clear,230,2013-01-18 04:15:00
10:35 PM,35.6,-0.4,22,30.28,10.0,WSW,16.1,-,N/A,,Clear,250,2013-01-18 05:35:00
10:55 PM,37.4,-0.4,20,30.26,10.0,WSW,12.7,-,N/A,,Clear,240,2013-01-18 05:55:00
11:15 PM,35.6,-0.4,22,30.26,10.0,SW,9.2,-,N/A,,Clear,230,2013-01-18 06:15:00
11:35 PM,33.8,1.4,25,30.26,10.0,SSW,16.1,-,N/A,,Clear,210,2013-01-18 06:35:00
11:55 PM,32.0,3.2,30,30.25,10.0,SSW,20.7,25.3,N/A,,Clear,210,2013-01-18 06:55:00